Concordia, KS

9:07 AM CST on November 17, 2019 (GMT -0600)
Blosser Municipal

Weather History for KCNK - September, 2019

Change the Weather History Date:

Wednesday, September 4, 2019

  Actual Average Record
Temperature  
Mean Temperature 75 °F 73 °F  
Max Temperature 82 °F 85 °F 102 °F (1945)
Min Temperature 67 °F 61 °F 44 °F (1902)
Degree Days  
Heating Degree Days 0 1  
Month to date heating degree days 0 2  
Since 1 July heating degree days 0 5  
Cooling Degree Days 10 8  
Month to date cooling degree days 50 35  
Year to date cooling degree days 1327 1201  
Growing Degree Days 25 (Base 50)    
Moisture  
Dew Point 61 °F    
Average Humidity 64    
Maximum Humidity 79    
Minimum Humidity 48    
Precipitation  
Precipitation 0.00 in 0.09 in 4.11 in (1958)
Month to date precipitation 0.00 0.38  
Year to date precipitation 28.84 21.48  
Snow  
Snow 0.00 in 0.00 in 0.00 in ()
Month to date snowfall 0.0 0.0  
Year to date snowfall 32.3 13.7  
Since 1 July snowfall 0.0 0.0  
Snow Depth 0.00 in    
Sea Level Pressure  
Sea Level Pressure 30.10 in    
Wind  
Wind Speed 9 mph (ESE)    
Max Wind Speed 16 mph    
Max Gust Speed 24 mph    
Visibility 10 miles    
Events      
T = Trace of Precipitation, MM = Missing Value Source: NWS Daily Summary

Daily Weather History Graph

Daily Weather History Graph

Search for Another Location

Airport or City:

Astronomy

Sep. 04, 2019 Rise Set
Actual Time 7:01 AM CDT 7:57 PM CDT
Civil Twilight 6:34 AM CDT 8:24 PM CDT
Nautical Twilight 6:01 AM CDT 8:57 PM CDT
Astronomical Twilight 5:27 AM CDT 9:30 PM CDT
Moon 1:02 PM CDT (9/4) 11:34 PM CDT (9/4)
Length of Visible Light 13h 50m
Length of Day
12h 55m
Waxing Crescent, 35% of the Moon is Illuminated
Sep 4
Waxing Crescent
Sep 5
First Quarter
Sep 13
Full
Sep 21
Last Quarter
Sep 28
New

Hourly Weather History & Observations

Time (CDT) Temp. Heat Index Dew Point Humidity Pressure Visibility Wind Dir Wind Speed Gust Speed Precip Events Conditions
12:55 AM 73.0 °F - 63.0 °F 71% 30.06 in 10.0 mi ENE 6.9 mph - N/A   Mostly Cloudy
1:55 AM 72.0 °F - 60.1 °F 66% 30.08 in 10.0 mi NE 6.9 mph - N/A   Overcast
2:55 AM 71.1 °F - 60.1 °F 68% 30.10 in 10.0 mi East 4.6 mph - N/A   Overcast
3:55 AM 69.1 °F - 60.1 °F 73% 30.11 in 10.0 mi East 4.6 mph - N/A   Mostly Cloudy
4:55 AM 69.1 °F - 60.1 °F 73% 30.11 in 10.0 mi East 4.6 mph - N/A   Overcast
5:55 AM 68.0 °F - 60.1 °F 76% 30.12 in 10.0 mi East 5.8 mph - N/A   Overcast
6:55 AM 68.0 °F - 59.0 °F 73% 30.13 in 10.0 mi East 5.8 mph - N/A   Overcast
7:55 AM 68.0 °F - 59.0 °F 73% 30.15 in 10.0 mi East 8.1 mph - N/A   Overcast
8:55 AM 69.1 °F - 59.0 °F 70% 30.15 in 10.0 mi East 10.4 mph - N/A   Clear
9:55 AM 73.0 °F - 57.9 °F 59% 30.15 in 10.0 mi East 11.5 mph - N/A   Clear
10:55 AM 75.0 °F - 57.0 °F 53% 30.14 in 10.0 mi ESE 12.7 mph - N/A   Clear
11:55 AM 77.0 °F - 57.0 °F 50% 30.15 in 10.0 mi ESE 12.7 mph - N/A   Clear
12:55 PM 78.1 °F - 57.0 °F 48% 30.14 in 10.0 mi East 11.5 mph - N/A   Clear
1:55 PM 80.1 °F 81.1 °F 61.0 °F 52% 30.12 in 10.0 mi ESE 8.1 mph - N/A   Clear
2:55 PM 80.1 °F 80.9 °F 60.1 °F 50% 30.11 in 10.0 mi ESE 10.4 mph - N/A   Clear
3:55 PM 81.0 °F 81.9 °F 62.1 °F 52% 30.09 in 10.0 mi ESE 10.4 mph - N/A   Clear
4:55 PM 81.0 °F 81.9 °F 62.1 °F 52% 30.08 in 10.0 mi SE 10.4 mph - N/A   Clear
5:55 PM 81.0 °F 82.2 °F 63.0 °F 54% 30.07 in 10.0 mi SE 9.2 mph - N/A   Clear
6:55 PM 79.0 °F - 63.0 °F 58% 30.06 in 10.0 mi East 8.1 mph - N/A   Clear
8:55 PM 73.0 °F - 64.0 °F 73% 30.05 in 10.0 mi ESE 9.2 mph - N/A   Clear
9:55 PM 72.0 °F - 64.0 °F 76% 30.04 in 10.0 mi SE 10.4 mph - N/A   Clear
10:55 PM 72.0 °F - 64.9 °F 78% 30.05 in 10.0 mi SE 11.5 mph - N/A   Clear
11:55 PM 73.0 °F - 66.0 °F 79% 30.03 in 10.0 mi SSE 13.8 mph - N/A   Clear